Weather History for PAWG - May, 2013

Change the Weather History Date:

Sunday, May 5, 2013

  Actual Average Record
Temperature  
Mean Temperature 50 °F -  
Max Temperature 57 °F - - ()
Min Temperature 44 °F - - ()
Degree Days  
Heating Degree Days 14    
Moisture  
Dew Point 44 °F    
Average Humidity 84    
Maximum Humidity 93    
Minimum Humidity 67    
Precipitation  
Precipitation 0.00 in - - ()
Sea Level Pressure  
Sea Level Pressure 30.17 in    
Wind  
Wind Speed 5 mph (West)    
Max Wind Speed 9 mph    
Max Gust Speed -    
Visibility 7 miles    
Events      
T = Trace of Precipitation, MM = Missing Value Source: NWS Daily Summary

Daily Weather History Graph

Daily Weather History Graph

Search for Another Location

Airport or City:

Trip Planner

Search our weather history database for the weather conditions in past years. The results will help you decide how hot, cold, wet, or windy it might be!

Date:

Astronomy

May. 05, 2013 Rise Set
Actual Time 4:53 AM AKDT 8:40 PM AKDT
Civil Twilight 4:06 AM AKDT 9:27 PM AKDT
Nautical Twilight 2:59 AM AKDT 10:35 PM AKDT
Astronomical Twilight 1:18 AM AKDT 12:13 AM AKDT
Moon 3:15 AM AKDT (5/5) 4:04 PM AKDT (5/5)
Length of Visible Light 17h 20m
Length of Day
15h 46m
Waning Crescent, 17% of the Moon is Illuminated
May 5
Waning Crescent
May 9
New
May 17
First Quarter
May 24
Full
May 31
Last Quarter

Hourly Weather History & Observations

Time (AKDT) Temp. Windchill Dew Point Humidity Pressure Visibility Wind Dir Wind Speed Gust Speed Precip Events Conditions
12:16 AM 46.4 °F 43.5 °F 44.6 °F 93% 30.34 in 3.0 mi SE 5.8 mph - N/A   Overcast
12:36 AM 46.4 °F 45.2 °F 44.6 °F 93% 30.33 in 1.8 mi ESE 3.5 mph - N/A   Overcast
12:56 AM 46.4 °F 44.3 °F 44.6 °F 93% 30.32 in 1.0 mi SE 4.6 mph - N/A   Overcast
1:16 AM 46.4 °F - 44.6 °F 93% 30.33 in 3.0 mi Calm Calm - N/A   Overcast
1:36 AM 46.4 °F 42.9 °F 44.6 °F 93% 30.33 in 2.5 mi WNW 6.9 mph - N/A   Overcast
1:56 AM 46.4 °F 44.3 °F 42.8 °F 87% 30.33 in 2.5 mi NW 4.6 mph - N/A   Overcast
2:16 AM 46.4 °F - 42.8 °F 87% 30.32 in 2.5 mi Calm Calm - N/A   Overcast
2:36 AM 46.4 °F - 42.8 °F 87% 30.31 in 2.0 mi Calm Calm - N/A   Overcast
2:56 AM 46.4 °F - 42.8 °F 87% 30.30 in 2.0 mi Calm Calm - N/A   Overcast
3:16 AM 44.6 °F 42.2 °F 42.8 °F 93% 30.29 in 0.8 mi ESE 4.6 mph - N/A   Overcast
3:36 AM 46.4 °F 45.2 °F 42.8 °F 87% 30.29 in 1.0 mi SE 3.5 mph - N/A   Overcast
3:56 AM 44.6 °F 42.2 °F 42.8 °F 93% 30.29 in 2.5 mi SE 4.6 mph - N/A   Overcast
4:16 AM 44.6 °F 40.7 °F 42.8 °F 93% 30.29 in 5.0 mi SE 6.9 mph - N/A   Overcast
4:36 AM 44.6 °F 41.4 °F 42.8 °F 93% 30.29 in 1.5 mi SE 5.8 mph - N/A   Overcast
4:56 AM 44.6 °F 41.4 °F 42.8 °F 93% 30.28 in 0.5 mi ESE 5.8 mph - N/A   Overcast
5:16 AM 44.6 °F 40.7 °F 42.8 °F 93% 30.28 in 0.2 mi ESE 6.9 mph - N/A   Overcast
5:36 AM 44.6 °F 42.2 °F 42.8 °F 93% 30.28 in 0.2 mi East 4.6 mph - N/A   Overcast
5:56 AM 44.6 °F 40.2 °F 42.8 °F 93% 30.27 in 0.5 mi SE 8.1 mph - N/A   Unknown
6:16 AM 44.6 °F 41.4 °F 42.8 °F 93% 30.27 in 0.5 mi East 5.8 mph - N/A   Unknown
6:36 AM 44.6 °F 42.2 °F 42.8 °F 93% 30.27 in 0.5 mi ESE 4.6 mph - N/A   Unknown
6:56 AM 44.6 °F 41.4 °F 42.8 °F 93% 30.26 in 2.0 mi SE 5.8 mph - N/A   Unknown
7:16 AM 44.6 °F 40.7 °F 42.8 °F 93% 30.26 in 2.0 mi ESE 6.9 mph - N/A   Unknown
7:36 AM 44.6 °F 40.7 °F 42.8 °F 93% 30.26 in 2.0 mi ESE 6.9 mph - N/A   Unknown
7:56 AM 44.6 °F 41.4 °F 42.8 °F 93% 30.25 in 2.0 mi ESE 5.8 mph - N/A   Unknown
8:16 AM 44.6 °F 41.4 °F 42.8 °F 93% 30.25 in 2.0 mi ESE 5.8 mph - N/A   Unknown
8:36 AM 46.4 °F 45.2 °F 42.8 °F 87% 30.24 in 2.0 mi ESE 3.5 mph - N/A   Unknown
8:56 AM 46.4 °F 45.2 °F 42.8 °F 87% 30.24 in 10.0 mi SE 3.5 mph - N/A   Overcast
9:16 AM 46.4 °F - 42.8 °F 87% 30.23 in 10.0 mi Calm Calm - N/A   Overcast
9:36 AM 46.4 °F - 44.6 °F 93% 30.23 in 10.0 mi Calm Calm - N/A   Overcast
9:56 AM 46.4 °F 43.5 °F 42.8 °F 87% 30.23 in 10.0 mi NW 5.8 mph - N/A   Overcast
10:16 AM 46.4 °F 43.5 °F 42.8 °F 87% 30.22 in 10.0 mi NW 5.8 mph - N/A   Overcast
10:36 AM 46.4 °F 43.5 °F 42.8 °F 87% 30.21 in 10.0 mi NNW 5.8 mph - N/A   Overcast
10:56 AM 46.4 °F 43.5 °F 42.8 °F 87% 30.21 in 10.0 mi NNW 5.8 mph - N/A   Mostly Cloudy
11:16 AM 46.4 °F 42.9 °F 42.8 °F 87% 30.20 in 10.0 mi NNW 6.9 mph - N/A   Mostly Cloudy
11:36 AM 48.2 °F - 42.8 °F 82% 30.20 in 10.0 mi West 4.6 mph - N/A   Mostly Cloudy
11:56 AM 48.2 °F - 42.8 °F 82% 30.19 in 10.0 mi NW 9.2 mph - N/A   Mostly Cloudy
12:16 PM 48.2 °F - 44.6 °F 87% 30.18 in 10.0 mi NNW 9.2 mph - N/A   Mostly Cloudy
12:36 PM 48.2 °F - 44.6 °F 87% 30.17 in 10.0 mi NNW 9.2 mph - N/A   Mostly Cloudy
12:56 PM 48.2 °F - 44.6 °F 87% 30.17 in 10.0 mi NNW 9.2 mph - N/A   Partly Cloudy
1:16 PM 48.2 °F - 44.6 °F 87% 30.16 in 10.0 mi NNW 8.1 mph - N/A   Partly Cloudy
1:36 PM 48.2 °F - 44.6 °F 87% 30.15 in 10.0 mi NNW 8.1 mph - N/A   Partly Cloudy
1:56 PM 50.0 °F - 44.6 °F 82% 30.15 in 10.0 mi NW 9.2 mph - N/A   Partly Cloudy
2:16 PM 51.8 °F - 46.4 °F 82% 30.14 in 10.0 mi NNW 6.9 mph - N/A   Partly Cloudy
2:36 PM 53.6 °F - 46.4 °F 77% 30.13 in 10.0 mi WNW 5.8 mph - N/A   Partly Cloudy
2:56 PM 53.6 °F - 46.4 °F 77% 30.12 in 10.0 mi NW 8.1 mph - N/A   Partly Cloudy
3:16 PM 53.6 °F - 46.4 °F 77% 30.12 in 10.0 mi NNW 6.9 mph - N/A   Partly Cloudy
3:36 PM 55.4 °F - 46.4 °F 72% 30.11 in 10.0 mi WNW 6.9 mph - N/A   Partly Cloudy
3:56 PM 55.4 °F - 46.4 °F 72% 30.10 in 10.0 mi West 6.9 mph - N/A   Overcast
4:16 PM 57.2 °F - 46.4 °F 67% 30.09 in 10.0 mi West 5.8 mph - N/A   Overcast
4:36 PM 57.2 °F - 46.4 °F 67% 30.09 in 10.0 mi West 6.9 mph - N/A   Overcast
4:56 PM 55.4 °F - 46.4 °F 72% 30.08 in 10.0 mi West 6.9 mph - N/A   Overcast
5:16 PM 57.2 °F - 46.4 °F 67% 30.07 in 10.0 mi WSW 5.8 mph - N/A   Overcast
5:36 PM 57.2 °F - 46.4 °F 67% 30.07 in 10.0 mi WNW 5.8 mph - N/A   Overcast
6:16 PM 55.4 °F - 46.4 °F 72% 30.05 in 10.0 mi West 5.8 mph - N/A   Mostly Cloudy
6:36 PM 55.4 °F - 44.6 °F 67% 30.05 in 10.0 mi WSW 6.9 mph - N/A   Mostly Cloudy
6:56 PM 55.4 °F - 46.4 °F 72% 30.04 in 10.0 mi WSW 5.8 mph - N/A   Scattered Clouds
7:16 PM 53.6 °F - 46.4 °F 77% 30.04 in 10.0 mi West 3.5 mph - N/A   Scattered Clouds
7:36 PM 53.6 °F - 44.6 °F 72% 30.03 in 10.0 mi Calm Calm - N/A   Scattered Clouds
7:56 PM 53.6 °F - 46.4 °F 77% 30.02 in 10.0 mi West 5.8 mph - N/A   Mostly Cloudy
8:16 PM 51.8 °F - 44.6 °F 76% 30.03 in 10.0 mi SW 4.6 mph - N/A   Mostly Cloudy
8:36 PM 51.8 °F - 44.6 °F 76% 30.03 in 10.0 mi West 4.6 mph - N/A   Mostly Cloudy
8:56 PM 51.8 °F - 44.6 °F 76% 30.03 in 10.0 mi WSW 4.6 mph - N/A   Clear
9:16 PM 51.8 °F - 44.6 °F 76% 30.03 in 10.0 mi Calm Calm - N/A   Clear
9:36 PM 50.0 °F - 44.6 °F 82% 30.03 in 10.0 mi Calm Calm - N/A   Clear
9:56 PM 48.2 °F - 44.6 °F 87% 30.02 in 10.0 mi Calm Calm - N/A   Mostly Cloudy
10:16 PM 48.2 °F - 42.8 °F 82% 30.02 in 10.0 mi WNW 5.8 mph - N/A   Mostly Cloudy
10:36 PM 48.2 °F - 42.8 °F 82% 30.02 in 10.0 mi Calm Calm - N/A   Mostly Cloudy
10:56 PM 48.2 °F - 42.8 °F 82% 30.01 in 10.0 mi Calm Calm - N/A   Mostly Cloudy
11:16 PM 46.4 °F - 42.8 °F 87% 30.01 in 10.0 mi Calm Calm - N/A   Mostly Cloudy
11:36 PM 46.4 °F - 42.8 °F 87% 30.02 in 10.0 mi Calm Calm - N/A   Mostly Cloudy
11:56 PM 46.4 °F - 42.8 °F 87% 30.02 in 10.0 mi Calm Calm - N/A   Mostly Cloudy